STARLINK-5690, 55480

Orbit data source: Space-Track

STARLINK-5690, 55480 is a payload satellite owned by SpaceX/Seattle (US) in LEO that was launched on Thu, 02 Feb 2023 UTC via an FALCON 9 launch vehicle from the Air Force Eastern Test Range (AFETR). Payload-class satellites include a variety of spacecraft equipped with specific instruments for various scientific and technological missions. These include communications satellites like Starlink; space stations such as the ISS; scientific satellites like the Hubble; Earth observation satellites from companies like Planet Labs, Umbra, and HawkEye 360; GPS; miniature CubeSats for education and research; and military/defense satellites.

Loading next visibility...
Identifier
55480, 2023-015AH
Orbit
LEO
Country
Flag of USUS
Related business
Manufacturer
SpaceX/Seattle
Mission
Operational Commercial Communications
Bus & Motor
STARLINK, Unknown motor
Mass
305 kg wet, ~290 kg dry
Launch date (UTC)
2023-02-02 (3 years ago)
Launch vehicle
FALCON 9
Launch site
Air Force Eastern Test Range (AFETR)
Object type
Payload
Rocket body
Debris
Shape & HBR
Box + 1 Pan, 10.1 m
Radar Cross Section
13.562 m², Large (>1 m²)

Expand to show TLE details & history
Last TLE update: 5 hours ago

TLE from 5 hours ago
0 STARLINK-5690
1 55480U 23015AH  26132.83335647 -.00007942  00000-0 -27936-3 0  9990
2 55480  43.0003 337.3043 0001548 267.5729 192.7562 15.27583942  5893
Epoch: 2026-05-12T20:00Z
TLE epoch observation values (Epoch: 2026-05-12T20:00:01.999Z)
Latitude
42.29718°
Longitude
-89.30359°
Altitude
487.036 km
Speed
7.627 km/s
True Right ascension
05h 25m 13s
True Declination
42° 07' 09"
Sunlit
Object was in daylight at epoch
Visualization orbit readout
Latitude
Unknown
Longitude
Unknown
Altitude
Unknown
Speed
Unknown
Apparent Right ascension
Unknown
Apparent Declination
Unknown
Sunlit
N/A
Visualization observer readout
Local Sidereal Time
09:31:50
Azimuth
Unknown
Elevation
Unknown
Doppler factor
Unknown
Orbital elements
Apogee altitude
486.045 km
Perigee altitude
483.92 km
Semi-major axis
6,863.119 km
Eccentricity
0.00015
Inclination
43.0003°
RAAN
337.3043°
Arg. of periapsis
267.5729°
True anomaly
192.75228°
Mean anomaly
192.7562°
Eccentric anomaly
192.75424°
Mean motion
3.81734 °/min
Orbital period
94.31 mins
BSTAR
-0.00027936
Loading maneuver chart data...
Computing Atmospheric mass density...
Loading historical data...
Loading historical data...
Loading historical data...
Loading historical data...
Loading historical data...
Loading historical data...
Loading historical data...

Documentation

Showing up to 5 results
|